Location: Monroe
(41.9160°N, 83.3980°W)
Time: 14:25:29
(UTC-04:00)

Amateur Radio Satellites - All Passes

Search period start: 28 July 2014 13:55
Search period end: 29 July 2014 13:55
Location: Monroe, 41.9160°N, 83.3980°W

Satellite Date Start Highest point End Downlink Frequencies (MHz)
Time Altitude Azimuth
SO-50 28 Jul 14:05:41 14:10:06 61° 306° (NW) 14:14:37 436.795 FM
TMSAT-1 28 Jul 14:06:40 14:07:08 10° 56° (NE) 14:07:35 436.925 FM
AO-27 28 Jul 14:07:06 14:11:46 34° 67° (ENE) 14:16:26 436.795 MHz FM
Uribyol 2 28 Jul 14:07:40 14:12:21 36° 68° (ENE) 14:17:03 436.500 FM
Gurwin Techsat 1B 28 Jul 14:26:37 14:30:35 22° 63° (ENE) 14:34:34 435.225 FM
UOSAT-12 28 Jul 14:31:21 14:34:40 20° 111° (ESE) 14:38:01 437.025 FM, 437.400 FM
Oscar 19 28 Jul 14:39:08 14:44:10 60° 259° (W) 14:49:15 437.125 CW, 437.150 USB
AO-7 28 Jul 14:55:07 15:00:20 19° 48° (NE) 15:05:33 29.400 - 29.500 MHz
KITSAT 1 28 Jul 14:57:30 15:04:42 34° 43° (NE) 15:11:51 435.175 FM
AO-Echo 28 Jul 15:00:06 15:05:25 81° 257° (WSW) 15:10:46 ?
Oscar 16 28 Jul 15:08:08 15:12:38 31° 264° (W) 15:17:10 437.025 USB, Beacon 2401.1428
Uosat F 28 Jul 15:22:11 15:23:56 12° 58° (ENE) 15:25:41 435.120 FM
ITAMSAT 1 28 Jul 15:27:04 15:32:04 46° 261° (W) 15:37:05 435.822 SSB
JAS-1B 28 Jul 15:39:42 15:48:31 79° 257° (WSW) 15:58:27 435.800 - 435.900 CW/SSB
TMSAT-1 28 Jul 15:40:49 15:46:05 72° 74° (ENE) 15:51:23 436.925 FM
RS-15 28 Jul 15:46:40 15:57:34 59° 311° (NW) 16:08:22 29.354 - 29.394 USB, Beacon 29.352 USB
AO-27 28 Jul 15:46:41 15:51:16 30° 264° (W) 15:55:51 436.795 MHz FM
Uribyol 2 28 Jul 15:47:23 15:51:51 29° 264° (W) 15:56:20 436.500 FM
SO-50 28 Jul 15:50:07 15:51:38 11° 327° (NNW) 15:53:10 436.795 FM
Gurwin Techsat 1B 28 Jul 16:05:02 16:10:11 51° 260° (W) 16:15:22 435.225 FM
UOSAT-12 28 Jul 16:09:58 16:14:26 50° 308° (NW) 16:19:01 437.025 FM, 437.400 FM
Saudisat 1A 28 Jul 16:20:13 16:23:50 24° 45° (NE) 16:27:24 436.775 MHz
AO-7 28 Jul 16:43:27 16:51:46 75° 69° (ENE) 17:00:08 29.400 - 29.500 MHz
KITSAT 1 28 Jul 16:52:40 17:00:40 66° 244° (WSW) 17:08:35 435.175 FM
Uosat F 28 Jul 16:56:53 17:01:56 87° 75° (ENE) 17:07:01 435.120 FM
TMSAT-1 28 Jul 17:23:46 17:26:32 14° 270° (W) 17:29:19 436.925 FM
JAS-1B 28 Jul 17:35:00 17:40:35 18° 278° (W) 17:46:32 435.800 - 435.900 CW/SSB
OPAL 28 Jul 17:46:13 17:51:18 77° 105° (ESE) 17:56:26 ?
UOSAT-12 28 Jul 17:54:57 17:55:44 10° 329° (NNW) 17:56:32 437.025 FM, 437.400 FM
Saudisat 1A 28 Jul 17:59:24 18:03:35 43° 243° (WSW) 18:07:44 436.775 MHz
RS-15 28 Jul 18:04:24 18:12:53 25° 341° (NNW) 18:21:25 29.354 - 29.394 USB, Beacon 29.352 USB
Hamsat 28 Jul 18:05:30 18:09:09 30° 70° (ENE) 18:12:49 145.90 MHz
JAS-2 28 Jul 18:06:55 18:14:04 42° 67° (ENE) 18:20:46 435.800 - 435.900 CW/SSB, 435.910 FM
AO-7 28 Jul 18:38:53 18:45:16 24° 267° (W) 18:51:42 29.400 - 29.500 MHz
Uosat F 28 Jul 18:40:28 18:41:22 10° 272° (W) 18:42:17 435.120 FM
KITSAT 1 28 Jul 18:52:18 18:54:29 11° 263° (W) 18:56:41 435.175 FM
SO-67 28 Jul 18:53:51 18:55:31 13° 66° (ENE) 18:57:11 435.3500 MHz FM
OPAL 28 Jul 19:26:48 19:29:34 15° 302° (WNW) 19:32:22 ?
Hamsat 28 Jul 19:41:51 19:45:08 22° 266° (W) 19:48:27 145.90 MHz
JAS-2 28 Jul 19:51:36 19:58:58 44° 263° (W) 20:05:57 435.800 - 435.900 CW/SSB, 435.910 FM
HO-68 28 Jul 19:56:24 20:00:49 18° 53° (NE) 20:05:14 435.675 MHz FM
STRAND 1 28 Jul 20:08:43 20:13:44 54° 101° (E) 20:18:42 ?
RS-15 28 Jul 20:21:59 20:30:27 24° 18° (NNE) 20:39:01 29.354 - 29.394 USB, Beacon 29.352 USB
SO-67 28 Jul 20:25:01 20:28:15 37° 262° (W) 20:31:31 435.3500 MHz FM
SO-50 28 Jul 20:57:04 21:00:37 20° 42° (NE) 21:04:11 436.795 FM
MaSat-1 28 Jul 21:06:40 21:08:51 14° 99° (E) 21:11:11 437.345 MHz
Oscar 11 28 Jul 21:06:48 21:07:59 11° 61° (ENE) 21:09:10 145.825 FM, Beacon 2401.500 USB
HO-68 28 Jul 21:40:19 21:47:30 84° 72° (ENE) 21:54:42 435.675 MHz FM
STRAND 1 28 Jul 21:48:55 21:52:30 20° 298° (WNW) 21:56:04 ?
UKube-1 28 Jul 21:53:39 21:58:00 72° 74° (ENE) 22:02:22 145.840 MHz, 145.915 MHz
RS-15 28 Jul 22:35:03 22:45:53 57° 48° (NE) 22:57:02 29.354 - 29.394 USB, Beacon 29.352 USB
SO-50 28 Jul 22:36:52 22:41:35 64° 240° (WSW) 22:46:21 436.795 FM
Oscar 11 28 Jul 22:39:16 22:43:33 75° 258° (WSW) 22:47:53 145.825 FM, Beacon 2401.500 USB
MaSat-1 28 Jul 22:41:26 22:45:27 55° 300° (WNW) 22:50:09 437.345 MHz
UOSAT-12 28 Jul 22:59:37 23:03:26 23° 43° (NE) 23:07:12 437.025 FM, 437.400 FM
FUNcube-1 28 Jul 22:59:57 23:04:15 67° 75° (ENE) 23:08:28 145.950 - 145.970 MHz USB
HO-68 28 Jul 23:31:29 23:35:59 18° 270° (W) 23:40:31 435.675 MHz FM
UKube-1 28 Jul 23:34:01 23:34:41 10° 270° (W) 23:35:21 145.840 MHz, 145.915 MHz
ISS 29 Jul 00:29:23 00:32:40 59° 141° (SE) 00:35:59 145.800 FM
UOSAT-12 29 Jul 00:39:16 00:43:52 52° 242° (WSW) 00:48:24 437.025 FM, 437.400 FM
FUNcube-1 29 Jul 00:40:05 00:41:04 11° 270° (W) 00:42:02 145.950 - 145.970 MHz USB
Sapphire 29 Jul 00:45:17 00:49:30 24° 107° (ESE) 00:53:45 437.095 MHz 1200 baud AX-25 AFSK
RS-15 29 Jul 00:47:47 00:57:58 45° 250° (WSW) 01:08:33 29.354 - 29.394 USB, Beacon 29.352 USB
PCSat 29 Jul 01:17:31 01:22:42 49° 113° (ESE) 01:27:55 145.825 MHz
Oscar 16 29 Jul 01:43:06 01:43:45 10° 88° (E) 01:44:24 437.025 USB, Beacon 2401.1428
AO-40 29 Jul 02:04:21 04:08:24 18° 120° (ESE) 05:15:23 Beacon 2401.320
ISS 29 Jul 02:06:43 02:09:36 26° 339° (NNW) 02:12:29 145.800 FM
Uribyol 2 29 Jul 02:22:16 02:23:55 11° 89° (E) 02:25:33 436.500 FM
AO-27 29 Jul 02:22:18 02:23:35 11° 88° (E) 02:24:52 436.795 MHz FM
Sapphire 29 Jul 02:27:21 02:32:35 50° 305° (NW) 02:37:52 437.095 MHz 1200 baud AX-25 AFSK
Oscar 19 29 Jul 02:50:20 02:55:19 47° 99° (E) 03:00:17 437.125 CW, 437.150 USB
PCSat 29 Jul 03:01:46 03:06:21 27° 312° (NW) 03:10:58 145.825 MHz
AO-Echo 29 Jul 03:07:48 03:12:20 32° 96° (E) 03:16:43 ?
Oscar 16 29 Jul 03:18:36 03:23:47 89° 104° (ESE) 03:28:58 437.025 USB, Beacon 2401.1428
OPAL 29 Jul 03:25:00 03:28:20 19° 60° (ENE) 03:31:41 ?
JAS-1B 29 Jul 03:26:46 03:35:20 39° 93° (E) 03:42:44 435.800 - 435.900 CW/SSB
ITAMSAT 1 29 Jul 03:39:22 03:44:31 62° 101° (ESE) 03:49:37 435.822 SSB
ISS 29 Jul 03:45:03 03:47:10 16° 360° (N) 03:49:17 145.800 FM
Oscar 10/S400 29 Jul 03:45:22 04:42:52 56° 206° (SSW) 12:20:42 145.825 - 145.975 CW/USB, Beacon 145.810 USB
TMSAT-1 29 Jul 03:56:51 04:01:21 28° 95° (E) 04:05:50 436.925 FM
AO-27 29 Jul 03:58:34 04:03:47 87° 285° (WNW) 04:08:57 436.795 MHz FM
Uribyol 2 29 Jul 03:58:50 04:04:01 83° 285° (WNW) 04:09:10 436.500 FM
Sapphire 29 Jul 04:16:06 04:17:22 11° 327° (NNW) 04:18:38 437.095 MHz 1200 baud AX-25 AFSK
Gurwin Techsat 1B 29 Jul 04:20:42 04:26:00 63° 101° (ESE) 04:31:14 435.225 FM
Oscar 19 29 Jul 04:30:23 04:34:21 23° 296° (WNW) 04:38:18 437.125 CW, 437.150 USB
AO-7 29 Jul 04:45:50 04:52:10 23° 93° (E) 04:58:25 29.400 - 29.500 MHz
AO-Echo 29 Jul 04:46:38 04:51:01 30° 293° (WNW) 04:55:16 ?
Oscar 16 29 Jul 05:00:15 05:02:23 13° 302° (WNW) 05:04:31 437.025 USB, Beacon 2401.1428
OPAL 29 Jul 05:01:56 05:06:47 57° 257° (WSW) 05:11:41 ?
Uosat F 29 Jul 05:04:54 05:09:04 26° 95° (E) 05:13:12 435.120 FM
JAS-1B 29 Jul 05:16:59 05:26:03 53° 295° (WNW) 05:33:55 435.800 - 435.900 CW/SSB
ITAMSAT 1 29 Jul 05:20:06 05:23:31 18° 299° (WNW) 05:26:54 435.822 SSB
ISS 29 Jul 05:21:53 05:24:45 25° 20° (NNE) 05:27:36 145.800 FM
KITSAT 1 29 Jul 05:29:28 05:34:17 17° 101° (E) 05:39:05 435.175 FM
TMSAT-1 29 Jul 05:36:29 05:41:20 38° 292° (WNW) 05:46:10 436.925 FM
AO-27 29 Jul 05:40:33 05:42:29 12° 302° (WNW) 05:44:26 436.795 MHz FM
Uribyol 2 29 Jul 05:41:03 05:42:40 11° 303° (WNW) 05:44:17 436.500 FM
STRAND 1 29 Jul 05:50:13 05:51:42 11° 57° (ENE) 05:53:10 ?
Gurwin Techsat 1B 29 Jul 06:01:56 06:05:26 18° 299° (WNW) 06:08:57 435.225 FM
AO-7 29 Jul 06:37:21 06:45:41 76° 291° (WNW) 06:53:56 29.400 - 29.500 MHz
Uosat F 29 Jul 06:43:20 06:47:56 37° 292° (WNW) 06:52:29 435.120 FM
ISS 29 Jul 06:58:22 07:01:42 65° 218° (SW) 07:05:01 145.800 FM
MaSat-1 29 Jul 06:59:14 07:04:19 43° 57° (ENE) 07:09:09 437.345 MHz
JAS-2 29 Jul 07:02:21 07:07:15 27° 92° (E) 07:11:46 435.800 - 435.900 CW/SSB, 435.910 FM
JAS-1B 29 Jul 07:10:07 07:14:10 14° 317° (NW) 07:18:04 435.800 - 435.900 CW/SSB
KITSAT 1 29 Jul 07:20:23 07:28:29 85° 119° (ESE) 07:36:38 435.175 FM
STRAND 1 29 Jul 07:24:54 07:30:03 82° 75° (ENE) 07:35:13 ?
Hamsat 29 Jul 07:26:01 07:30:17 60° 100° (E) 07:34:34 145.90 MHz
PANSAT 29 Jul 07:30:37 07:31:45 11° 182° (S) 07:32:52 not established
SO-67 29 Jul 07:49:37 07:51:31 14° 92° (E) 07:53:24 435.3500 MHz FM
Saudisat 1A 29 Jul 08:05:56 08:10:07 43° 117° (ESE) 08:14:19 436.775 MHz
AO-7 29 Jul 08:31:55 08:37:08 19° 312° (NW) 08:42:20 29.400 - 29.500 MHz
MaSat-1 29 Jul 08:37:04 08:41:25 27° 256° (WSW) 08:45:33 437.345 MHz
JAS-2 29 Jul 08:47:00 08:52:34 41° 293° (WNW) 08:57:37 435.800 - 435.900 CW/SSB, 435.910 FM
Hamsat 29 Jul 09:03:40 09:05:46 13° 297° (WNW) 09:07:51 145.90 MHz
STRAND 1 29 Jul 09:08:01 09:09:50 12° 271° (W) 09:11:40 ?
HO-68 29 Jul 09:10:04 09:13:43 14° 88° (E) 09:17:20 435.675 MHz FM
KITSAT 1 29 Jul 09:18:11 09:24:53 28° 322° (NW) 09:31:37 435.175 FM
SO-67 29 Jul 09:21:34 09:24:42 32° 288° (WNW) 09:27:50 435.3500 MHz FM
Sapphire 29 Jul 09:32:02 09:36:25 24° 46° (NE) 09:40:47 437.095 MHz 1200 baud AX-25 AFSK
UKube-1 29 Jul 09:43:54 09:45:28 12° 90° (E) 09:47:01 145.840 MHz, 145.915 MHz
Saudisat 1A 29 Jul 09:46:16 09:49:53 24° 315° (NW) 09:53:30 436.775 MHz
PCSat 29 Jul 10:05:02 10:10:13 43° 54° (NE) 10:15:21 145.825 MHz
Oscar 11 29 Jul 10:27:25 10:30:33 19° 93° (E) 10:33:40 145.825 FM, Beacon 2401.500 USB
FUNcube-1 29 Jul 10:50:50 10:52:21 12° 90° (E) 10:53:53 145.950 - 145.970 MHz USB
HO-68 29 Jul 10:55:11 11:02:23 85° 106° (ESE) 11:09:32 435.675 MHz FM
Sapphire 29 Jul 11:14:54 11:20:13 58° 245° (WSW) 11:25:30 437.095 MHz 1200 baud AX-25 AFSK
UKube-1 29 Jul 11:17:46 11:22:05 63° 286° (WNW) 11:26:22 145.840 MHz, 145.915 MHz
KITSAT 1 29 Jul 11:20:41 11:23:42 12° 351° (N) 11:26:43 435.175 FM
PCSat 29 Jul 11:48:51 11:53:24 28° 251° (WSW) 11:57:56 145.825 MHz
Oscar 11 29 Jul 12:02:51 12:06:52 38° 289° (WNW) 12:10:53 145.825 FM, Beacon 2401.500 USB
FUNcube-1 29 Jul 12:25:01 12:29:07 58° 286° (WNW) 12:33:15 145.950 - 145.970 MHz USB
HO-68 29 Jul 12:44:20 12:49:13 20° 305° (NW) 12:54:07 435.675 MHz FM
SO-50 29 Jul 12:52:25 12:56:32 38° 116° (ESE) 13:00:43 436.795 FM
Oscar 16 29 Jul 12:58:58 13:02:17 18° 62° (ENE) 13:05:37 437.025 USB, Beacon 2401.1428
RS-15 29 Jul 13:00:47 13:10:00 31° 105° (ESE) 13:19:01 29.354 - 29.394 USB, Beacon 29.352 USB
KITSAT 1 29 Jul 13:18:43 13:23:22 16° 22° (NNE) 13:27:59 435.175 FM
ITAMSAT 1 29 Jul 13:21:45 13:24:10 13° 59° (ENE) 13:26:35 435.822 SSB
Uribyol 2 29 Jul 13:39:32 13:43:16 20° 63° (ENE) 13:47:00 436.500 FM
AO-27 29 Jul 13:39:35 13:43:16 20° 62° (ENE) 13:46:57 436.795 MHz FM
